Estación de Tranapuente INIA

Ultimos registro cada 15 minutos 85
Estación Fecha / Hora Temperatura Humedad Lluvia Velocidad Dirección Radiación Presion
85 Tranapuente INIA 03-05-2026 21:00 11,8 94,3 0 0 0 0 1008
84 Tranapuente INIA 03-05-2026 20:45 11,9 95,1 0 0 0 0 1008
83 Tranapuente INIA 03-05-2026 20:30 11,9 95,4 0 0 0 0 1008
82 Tranapuente INIA 03-05-2026 20:15 11,9 95,6 0 0 0 0 1008
81 Tranapuente INIA 03-05-2026 20:00 12 97,2 0 0 0 0 1008
80 Tranapuente INIA 03-05-2026 19:45 12 96,1 0 0 0 0 1008
79 Tranapuente INIA 03-05-2026 19:30 12,1 96,8 0 0 0 0 1008
78 Tranapuente INIA 03-05-2026 19:15 12,2 97,2 0 0 72 0 1008
77 Tranapuente INIA 03-05-2026 19:00 12,3 97,8 0 0,1 18 0 1008
76 Tranapuente INIA 03-05-2026 18:45 12,5 96,7 0 0,2 19 0 1008
75 Tranapuente INIA 03-05-2026 18:30 12,7 97,3 0 0,2 28 0 1008
74 Tranapuente INIA 03-05-2026 18:15 12,9 97,3 0,1 0,8 19 1 1008
73 Tranapuente INIA 03-05-2026 18:00 13,2 96,2 0,5 2,2 344 4 1007
72 Tranapuente INIA 03-05-2026 17:45 13,6 94,2 0 2 331 7 1007
71 Tranapuente INIA 03-05-2026 17:30 14 95,3 0,6 1,7 314 8 1007
70 Tranapuente INIA 03-05-2026 17:15 14,4 93,9 0 0,4 344 21 1007
69 Tranapuente INIA 03-05-2026 17:00 14,4 92,9 0 1,4 1 50 1007
68 Tranapuente INIA 03-05-2026 16:45 14,5 91,9 0 2 354 88 1007
67 Tranapuente INIA 03-05-2026 16:30 14,4 93,8 0 1,9 3 98 1007
66 Tranapuente INIA 03-05-2026 16:15 14,4 94,1 0 2 347 92 1007
65 Tranapuente INIA 03-05-2026 16:00 14,4 94,8 0 1,8 5 67 1006
64 Tranapuente INIA 03-05-2026 15:45 14,6 93,6 0 2,2 4 103 1006
63 Tranapuente INIA 03-05-2026 15:30 14,6 94,8 0 1,7 1 115 1006
62 Tranapuente INIA 03-05-2026 15:15 14,5 95,7 0 2,3 351 102 1006
61 Tranapuente INIA 03-05-2026 15:00 14,5 96,3 0,3 1 346 85 1006
60 Tranapuente INIA 03-05-2026 14:45 14,4 96,3 0,1 1,3 351 69 1006
59 Tranapuente INIA 03-05-2026 14:30 14,6 96,7 1,4 0,4 33 53 1006
58 Tranapuente INIA 03-05-2026 14:15 14,9 94,9 0,4 1,4 22 62 1006
57 Tranapuente INIA 03-05-2026 14:00 15,2 89,8 0 0,5 45 75 1006
56 Tranapuente INIA 03-05-2026 13:45 15,6 86,7 0 1,1 64 142 1006
55 Tranapuente INIA 03-05-2026 13:30 15,8 82,6 0 1,7 28 243 1006
54 Tranapuente INIA 03-05-2026 13:15 15,4 84,1 0 2 14 154 1007
53 Tranapuente INIA 03-05-2026 13:00 15,3 86,4 0 2,5 7 159 1006
52 Tranapuente INIA 03-05-2026 12:45 15,1 85,5 0 2,8 16 151 1007
51 Tranapuente INIA 03-05-2026 12:30 14,9 86,9 0 3,2 21 166 1007
50 Tranapuente INIA 03-05-2026 12:15 14,8 87,4 0 2,7 25 129 1006
49 Tranapuente INIA 03-05-2026 12:00 14,8 87,3 0 2,4 7 152 1006
48 Tranapuente INIA 03-05-2026 11:45 14,6 87,5 0 3,5 12 157 1006
47 Tranapuente INIA 03-05-2026 11:30 14,7 87,2 0 3,2 18 150 1006
46 Tranapuente INIA 03-05-2026 11:15 14,8 86,7 0 3,7 24 172 1006
45 Tranapuente INIA 03-05-2026 11:00 14,7 87,5 0 4,2 21 185 1006
44 Tranapuente INIA 03-05-2026 10:45 14,6 89,8 0 4,3 12 171 1006
43 Tranapuente INIA 03-05-2026 10:30 14,8 90 0 3,5 16 68 1006
42 Tranapuente INIA 03-05-2026 10:15 15 90,7 0 2,9 15 73 1005
41 Tranapuente INIA 03-05-2026 10:00 14,3 90,3 0 3 4 54 1005
40 Tranapuente INIA 03-05-2026 09:45 11,1 99,9 0,2 1 246 40 1005
39 Tranapuente INIA 03-05-2026 09:30 11,2 97 0 0 133 33 1005
38 Tranapuente INIA 03-05-2026 09:15 11,8 94,8 0,1 0,4 86 34 1005
37 Tranapuente INIA 03-05-2026 09:00 10,2 99,5 0 0 74 17 1005
36 Tranapuente INIA 03-05-2026 08:45 9,3 99,4 0,2 0 0 17 1005
35 Tranapuente INIA 03-05-2026 08:30 9,5 98,4 0,1 0 0 9 1005
34 Tranapuente INIA 03-05-2026 08:15 9 98,4 0,5 0 0 4 1005
33 Tranapuente INIA 03-05-2026 08:00 8,6 97,7 0,6 0 281 2 1005
32 Tranapuente INIA 03-05-2026 07:45 8,9 96,1 0,5 0 0 1 1005
31 Tranapuente INIA 03-05-2026 07:30 9,8 95 0 0,2 89 1 1005
30 Tranapuente INIA 03-05-2026 07:15 10 94,7 0,2 1,3 79 1 1005
29 Tranapuente INIA 03-05-2026 07:00 7,3 99,9 0,3 0,1 78 0 1005
28 Tranapuente INIA 03-05-2026 06:45 7,4 93,7 0,2 0 121 0 1005
27 Tranapuente INIA 03-05-2026 06:30 7,2 92 0 0 88 0 1005
26 Tranapuente INIA 03-05-2026 06:15 7,1 92,1 0 0,2 94 0 1005
25 Tranapuente INIA 03-05-2026 06:00 6,9 91,3 0 0 0 0 1005
24 Tranapuente INIA 03-05-2026 05:45 6,9 90,5 0 0,6 92 0 1005
23 Tranapuente INIA 03-05-2026 05:30 6,7 90,7 0 0 0 0 1006
22 Tranapuente INIA 03-05-2026 05:15 6,5 91,3 0 0,4 95 0 1006
21 Tranapuente INIA 03-05-2026 05:00 6,2 91,4 0 0,3 103 0 1006
20 Tranapuente INIA 03-05-2026 04:45 6,2 90 0 0 0 0 1006
19 Tranapuente INIA 03-05-2026 04:30 6,5 89,3 0 0 112 0 1006
18 Tranapuente INIA 03-05-2026 04:15 6,5 88,8 0 0 0 0 1006
17 Tranapuente INIA 03-05-2026 04:00 6,5 88 0 0 0 0 1007
16 Tranapuente INIA 03-05-2026 03:45 6,8 89,9 0 0 0 0 1007
15 Tranapuente INIA 03-05-2026 03:30 6,8 88,3 0 0 0 0 1007
14 Tranapuente INIA 03-05-2026 03:15 6,8 89 0 0 0 0 1007
13 Tranapuente INIA 03-05-2026 03:00 6,7 89,4 0 0 0 0 1007
12 Tranapuente INIA 03-05-2026 02:45 6,6 92,4 0 0 0 0 1007
11 Tranapuente INIA 03-05-2026 02:30 6,7 91,3 0 0 0 0 1008
10 Tranapuente INIA 03-05-2026 02:15 6,8 87,5 0 0 329 0 1008
9 Tranapuente INIA 03-05-2026 02:00 6,8 86,4 0 0 0 0 1008
8 Tranapuente INIA 03-05-2026 01:45 7 90,8 0 0 326 0 1008
7 Tranapuente INIA 03-05-2026 01:30 6,6 90,1 0 0 0 0 1008
6 Tranapuente INIA 03-05-2026 01:15 6,5 91,3 0 0 0 0 1008
5 Tranapuente INIA 03-05-2026 01:00 6,5 90,7 0 0 0 0 1008
4 Tranapuente INIA 03-05-2026 00:45 6,5 90,8 0 0 0 0 1008
3 Tranapuente INIA 03-05-2026 00:30 6,6 90,2 0 0 0 0 1008
2 Tranapuente INIA 03-05-2026 00:15 6,5 86,8 0 0 0 0 1008
1 Tranapuente INIA 03-05-2026 00:00 6,2 88,8 0 0 0 0 1008